This is the latest recevied weather packets stored in our database for station/object N1UNH. If no packets are shown the sender has not sent any weather packets the latest 10 day(s).
| Time | Temp. | Humidity | Pressure | Rain* | Wind** | Luminosity | Snow |
|---|---|---|---|---|---|---|---|
| 1778062654 | 12.22° C | 89% | 1014.2 hPa | 0 mm | - | 14 W/m² | - |
| 1778062350 | 12.22° C | 89% | 1014.2 hPa | 0 mm | - | 17 W/m² | - |
| 1778062048 | 12.22° C | 89% | 1014.6 hPa | 0 mm | - | 19 W/m² | - |
| 1778061746 | 12.22° C | 89% | 1014.2 hPa | 0 mm | - | 15 W/m² | - |
| 1778061444 | 12.22° C | 89% | 1014.4 hPa | 0 mm | - | 7 W/m² | - |
| 1778061140 | 12.22° C | 89% | 1014.1 hPa | 0 mm | - | 7 W/m² | - |
| 1778060837 | 12.22° C | 89% | 1014.3 hPa | 0 mm | - | 5 W/m² | - |
| 1778060535 | 12.22° C | 89% | 1014.2 hPa | 0 mm | - | 3 W/m² | - |
| 1778060234 | 12.22° C | 89% | 1014.5 hPa | 0 mm | - | 2 W/m² | - |
| 1778059930 | 12.22° C | 89% | 1014.4 hPa | 0 mm | - | 1 W/m² | - |
| 1778059628 | 12.22° C | 89% | 1014.3 hPa | 0 mm | - | 1 W/m² | - |
| 1778059326 | 12.22° C | 89% | 1014.4 hPa | 0 mm | - | 0 W/m² | - |
| 1778059023 | 12.22° C | 88% | 1014.2 hPa | 0 mm | - | 0 W/m² | - |
| 1778058721 | 12.22° C | 88% | 1014.1 hPa | 0 mm | - | 0 W/m² | - |
| 1778058418 | 12.22° C | 88% | 1014.4 hPa | 0 mm | - | 0 W/m² | - |
| 1778058114 | 12.22° C | 88% | 1014.3 hPa | 0 mm | - | 0 W/m² | - |
| 1778057811 | 12.22° C | 88% | 1014.3 hPa | 0 mm | - | 0 W/m² | - |
| 1778057507 | 12.22° C | 88% | 1014.3 hPa | 0 mm | - | 0 W/m² | - |
| 1778057204 | 12.22° C | 88% | 1014.4 hPa | 0 mm | - | 0 W/m² | - |
| 1778056901 | 12.22° C | 88% | 1014.1 hPa | 0 mm | - | 0 W/m² | - |
| 1778056598 | 12.78° C | 88% | 1014.4 hPa | 0 mm | - | 0 W/m² | - |
| 1778056296 | 12.78° C | 87% | 1014.2 hPa | 0 mm | - | 0 W/m² | - |
| 1778055992 | 12.78° C | 87% | 1014.4 hPa | 0 mm | - | 0 W/m² | - |
| 1778055688 | 12.78° C | 87% | 1014.4 hPa | 0 mm | - | 0 W/m² | - |
| 1778055387 | 12.78° C | 87% | 1014.4 hPa | 0 mm | - | 0 W/m² | - |
* Rain latest hour (hover to see other rain measurements)
** Current wind speed in m/s (hover to see current wind gust speed)